OSCAR 32 [?]

Last updated on Tue Jun 27 2023 00:03:36 GMT+0000 (Coordinated Universal Time)

1 19071U 88033B 23176.71861470 .00000117 00000+0 21647-3 0 9994 2 19071 90.3190 348.6743 0189086 153.0646 219.3492 13.27757087703506

Satellite not in orbit

OSCAR 32 [?]